, FL

(GMT )
Bonifay

Weather History for K1J0 - August, 2019

Change the Weather History Date:

Monday, August 12, 2019

  Actual Average Record
Temperature  
Mean Temperature 86 °F -  
Max Temperature 96 °F - - ()
Min Temperature 75 °F - - ()
Cooling Degree Days 20    
Growing Degree Days 36 (Base 50)    
Moisture  
Dew Point 77 °F    
Average Humidity 79    
Maximum Humidity 97    
Minimum Humidity 52    
Precipitation  
Precipitation 0.00 in - - ()
Sea Level Pressure  
Sea Level Pressure 29.82 in    
Wind  
Wind Speed 2 mph (SSW)    
Max Wind Speed 21 mph    
Max Gust Speed 25 mph    
Visibility 9 miles    
Events Rain , Thunderstorm    
Averages and records for this station are not official NWS values.
T = Trace of Precipitation, MM = Missing Value Source: NWS Daily Summary

Daily Weather History Graph

Daily Weather History Graph

Search for Another Location

Airport or City:

Astronomy

Aug. 12, 2019 Rise Set
Actual Time 7:06 AM EDT 8:27 PM EDT
Civil Twilight 6:41 AM EDT 8:53 PM EDT
Nautical Twilight 6:10 AM EDT 9:23 PM EDT
Astronomical Twilight 5:38 AM EDT 9:55 PM EDT
Moon 6:48 PM EDT (8/12) 4:24 AM EDT (8/12)
Length of Visible Light 14h 12m
Length of Day
13h 21m
Waxing Gibbous, 93% of the Moon is Illuminated
Aug 12
Waxing Gibbous
Aug 15
Full
Aug 23
Last Quarter
Aug 30
New
Sep 5
First Quarter

Hourly Weather History & Observations

Time (EDT) Temp. Heat Index Dew Point Humidity Pressure Visibility Wind Dir Wind Speed Gust Speed Precip Events Conditions
12:58 AM 79.0 °F - 75.9 °F 90% 29.81 in 10.0 mi Calm Calm - N/A   Clear
1:58 AM 78.1 °F - 75.9 °F 93% 29.80 in 10.0 mi Calm Calm - N/A   Partly Cloudy
2:58 AM 78.1 °F - 75.9 °F 93% 29.79 in 8.0 mi Calm Calm - N/A   Clear
3:58 AM 77.0 °F - 75.9 °F 96% 29.78 in 7.0 mi Calm Calm - N/A   Clear
4:58 AM 77.0 °F - 75.0 °F 94% 29.78 in 7.0 mi South 3.5 mph - N/A   Clear
5:58 AM 75.9 °F - 73.9 °F 94% 29.78 in 6.0 mi Calm Calm - N/A   Clear
6:58 AM 75.9 °F - 75.0 °F 97% 29.81 in 7.0 mi Calm Calm - N/A   Clear
7:58 AM 77.0 °F - 75.0 °F 94% 29.83 in 6.0 mi Calm Calm - N/A   Clear
8:58 AM 82.0 °F 90.2 °F 77.0 °F 85% 29.83 in 10.0 mi Calm Calm - N/A   Clear
9:58 AM 84.0 °F 93.7 °F 77.0 °F 79% 29.84 in 10.0 mi Calm Calm - N/A   Mostly Cloudy
10:58 AM 88.0 °F 101.3 °F 78.1 °F 72% 29.84 in 10.0 mi SSW 3.5 mph - N/A   Clear
11:58 AM 90.0 °F 102.5 °F 77.0 °F 65% 29.84 in 10.0 mi Calm Calm - N/A   Clear
1:58 PM 93.9 °F 105.4 °F 75.0 °F 54% 29.81 in 10.0 mi SSE 4.6 mph - N/A   Mostly Cloudy
2:58 PM 95.0 °F 109.7 °F 77.0 °F 56% 29.78 in 10.0 mi Calm Calm - N/A   Scattered Clouds
4:41 PM 96.1 °F 109.4 °F 75.9 °F 52% 29.88 in 10.0 mi North - - N/A Thunderstorm Thunderstorm
4:58 PM 91.0 °F 104.2 °F 77.0 °F 63% 29.78 in 10.0 mi South 20.7 mph 25.3 mph N/A Thunderstorm Thunderstorm
5:22 PM 88.0 °F 101.3 °F 78.1 °F 72% 29.89 in 10.0 mi SSW 13.8 mph 20.7 mph 0.00 in Rain Light Rain
5:58 PM 86.0 °F 96.0 °F 75.9 °F 72% 29.76 in 10.0 mi SSW 6.9 mph - 0.00 in   Scattered Clouds
6:58 PM 88.0 °F 100.2 °F 77.0 °F 70% 29.76 in 10.0 mi SSW 5.8 mph - N/A   Clear
7:58 PM 87.1 °F 99.8 °F 78.1 °F 74% 29.76 in 10.0 mi SSW 3.5 mph - N/A Thunderstorm Thunderstorm
8:06 PM 87.1 °F 99.8 °F 78.1 °F 74% 29.89 in 10.0 mi Calm Calm - N/A   Partly Cloudy
8:43 PM 84.9 °F 94.1 °F 75.9 °F 74% 29.90 in 10.0 mi Calm Calm - N/A Thunderstorm Thunderstorm
9:42 PM 82.9 °F 92.8 °F 78.1 °F 85% 29.91 in 10.0 mi Calm Calm - N/A Thunderstorm Thunderstorm
9:58 PM 82.9 °F 92.8 °F 78.1 °F 85% 29.80 in 10.0 mi Calm Calm - N/A   Clear
11:58 PM 81.0 °F 87.9 °F 77.0 °F 88% 29.80 in 10.0 mi Calm Calm - N/A   Clear